GOES 17 (43226 NORAD) Tracking and Keplerian Element Data

This shows tracking and keplerian element data for the satellite.

Feedback or suggestion? Click here.




ElementValue
Catalog43226
NameGOES 17
Epoch Orbit900
Epoch Day223.17248744
Epoch Year2020
RAAN275.8739
Inclination0.0518
Eccentricity4.06E-05
Argument of Perigee298.7789
Mean Anonmoly29.3774
Mean Motion1.00272896
Decay Rate9.6E-07
L11 43226U 18022A 20223.17248744 .00000096 00000-0 00000+0 0 9990
L22 43226 0.0518 275.8739 0000406 298.7789 29.3774 1.00272896 9000

Live tracking and technical data element details for GOES 17 (NORAD 43226). GOES 17 can be tracked NOW for your location showing map with azimuth and elevation plus other details from your city location.

Track the satellite on the map from your city or location and see movement details for azimuth, elevation, latitude, longitude, range, height, and movement on the map or in text.







IsCatalogInMostPopularTable: catalog: 43226, numindb: 589
Update: records affected: 1



GetName: 43226 GOES 17

Hit Count: updated at: Mon, 10 Aug 2020 21:46:46 GMT